Regional Weather Roundup
Issued by NWS

Home | Current Version | Previous Version | Text Only | Print | Product List | Glossary On
Versions: 1 2 3 4 5 6 7 8 9 10 11 12 13 14 15 16 17 18 19 20 21 22 23 24 25 26 27 28 29 30 31 32 33 34 35 36 37 38 39 40 41 42 43 44 45 46 47 48 49 50
000
ASUS44 KOUN 282100
RWROK

WEATHER ROUNDUP FOR OKLAHOMA
NATIONAL WEATHER SERVICE NORMAN OK
300 PM CST WED JAN 28 2015

NOTE: "FAIR" INDICATES FEW OR NO CLOUDS BELOW 12,000 FEET WITH NO
      SIGNIFICANT WEATHER AND/OR OBSTRUCTIONS TO VISIBILITY.

OKZ001>007-009>012-014-015-017-282200-
NORTHWEST OKLAHOMA AND THE PANHANDLE

CITY           SKY/WX    TMP DP  RH WIND       PRES   REMARKS
GAGE           SUNNY     74  30  19 N14G22    29.90F
ENID/WOODRING  PTSUNNY   77  41  27 SW17      29.83R
$$

OKZ016-021>023-033>039-044-045-282200-
SOUTHWEST OKLAHOMA

CITY           SKY/WX    TMP DP  RH WIND       PRES   REMARKS
LAWTON/REGL    PTSUNNY   76  44  32 SW15G23   29.90F
LAWTON/FT SILL PTSUNNY   76  46  34 S17       29.89F
FREDERICK      PTSUNNY   80  43  26 S20       29.87F
CLINTON        PTSUNNY   75  40  28 W15       29.91R
HOBART         PTSUNNY   80  40  23 W18       29.88F
ALTUS AFB      SUNNY     84  39  20 W15G33    29.87F
$$

OKZ018>020-024>031-282200-
CENTRAL OKLAHOMA

CITY           SKY/WX    TMP DP  RH WIND       PRES   REMARKS
OKLAHOMA CITY  CLOUDY    76  42  29 SW18G24   29.87F
OKC/WILEY POST CLOUDY    76  43  30 S15G25    29.87F
OKC/TINKER AFB CLOUDY    76  43  31 S17       29.87F
STILLWATER     PTSUNNY   80  39  23 S20G29    29.82F
GUTHRIE        CLOUDY    80  39  23 SW17G28   29.84F
$$

OKZ008-013-054>072-282200-
NORTHEAST OKLAHOMA

CITY           SKY/WX    TMP DP  RH WIND       PRES   REMARKS
TULSA          CLOUDY    79  36  21 S21G35    29.85F
TULSA/JONES    PTSUNNY   78  37  22 S15G31    29.86F
PONCA CITY     PTSUNNY   78  39  24 SW16G26   29.80F
BARTLESVILLE   PTSUNNY   79  37  22 S18G28    29.82F
MUSKOGEE       MOSUNNY   76  39  26 S20       29.91F
$$

OKZ032-040>043-046>053-073>077-282200-
SOUTH CENTRAL/SOUTHEAST OKLAHOMA

CITY           SKY/WX    TMP DP  RH WIND       PRES   REMARKS
MCALESTER      PTSUNNY   76  42  29 S14G28    29.94F
$$



USA.gov is the U.S. government's official web portal to all federal, state and local government web resources and services.